Portada
METAR-TAF:

METAR-TAF

Aeroports :

Skyhaven Airport

Rochester, Nova Hampshire, Estats Units d'Amèrica

latitud: 43-16-41N, longitud: 070-55-20W, altitud: 98 m

Observació

L'informe es va fer fa 19 minuts, a les 09:51 UTC
Vent calma
Temperatura 3°C
Humitat 100%
Pressió 1013 hPa
Visibilitat: 16.1 km
Cel clar

METAR: KDAW 290951Z AUTO 00000KT 10SM CLR 03/03 A2991 RMK AO2 SLP129 T00330028

Hora: 06:10 (10:10 UTC)


TAF: manca

Observacions i pronòstics meteorològics de més de 4000 aeroports (METAR i TAF).

Les estacions disponibles són els punts grocs i vermells al mapa.

Posi el ratolí al punt desitjat per veure el nom de l'estació.

Feu clic per veure les observacions i els pronòstics meteorològics.

Per canviar el mapa: feu clic els botons verds amb una creu de color negre per apropar; al botó verd amb un guió per allunyar la imatge; o en les fletxes verdes per a mapes adjacents.


METAR-TAF: